Lamoni, IA

10:14 PM CDT on October 22, 2017 (GMT -0500)
Lamoni Municipal

Weather History for KLWD - June, 2014

Change the Weather History Date:

Wednesday, June 11, 2014

  Actual Average Record
Temperature  
Mean Temperature 68 °F 70 °F  
Max Temperature 79 °F 80 °F 92 °F (1977)
Min Temperature 56 °F 60 °F 50 °F (1972)
Degree Days  
Heating Degree Days 0 1  
Month to date heating degree days 1 14  
Since 1 June heating degree days 1 14  
Since 1 July heating degree days 6766 6074  
Cooling Degree Days 3 6  
Month to date cooling degree days 45 49  
Year to date cooling degree days 157 103  
Since 1 June cooling degree days 45 49  
Growing Degree Days 16 (Base 50)    
Moisture  
Dew Point 57 °F    
Average Humidity 71    
Maximum Humidity 93    
Minimum Humidity 48    
Precipitation  
Precipitation 0.00 in 0.18 in 1.82 in (2006)
Month to date precipitation 7.10 2.17  
Sea Level Pressure  
Sea Level Pressure 29.81 in    
Wind  
Wind Speed 5 mph (NNE)    
Max Wind Speed 12 mph    
Max Gust Speed 16 mph    
Visibility 10 miles    
Events      
T = Trace of Precipitation, MM = Missing Value Source: NWS Daily Summary

Daily Weather History Graph

Daily Weather History Graph

Search for Another Location

Airport or City:

Trip Planner

Search our weather history database for the weather conditions in past years. The results will help you decide how hot, cold, wet, or windy it might be!

Date:

Astronomy

Jun. 11, 2014 Rise Set
Actual Time 5:44 AM CDT 8:46 PM CDT
Civil Twilight 5:11 AM CDT 9:19 PM CDT
Nautical Twilight 4:28 AM CDT 10:01 PM CDT
Astronomical Twilight 3:39 AM CDT 10:51 PM CDT
Moon 7:16 PM CDT (6/11) 4:35 AM CDT (6/11)
Length of Visible Light 16h 08m
Length of Day
15h 02m
Waxing Gibbous, 97% of the Moon is Illuminated
Jun 11
Waxing Gibbous
Jun 12
Full
Jun 19
Last Quarter
Jun 27
New
Jul 5
First Quarter

Hourly Weather History & Observations

Time (CDT) Temp. Dew Point Humidity Pressure Visibility Wind Dir Wind Speed Gust Speed Precip Events Conditions
12:53 AM 62.1 °F 57.0 °F 84% 29.83 in 10.0 mi NNE 4.6 mph - N/A   Overcast
1:21 AM 60.1 °F 57.0 °F 90% 29.83 in 10.0 mi NNE 5.8 mph - N/A   Overcast
1:53 AM 60.1 °F 55.9 °F 86% 29.82 in 10.0 mi NNE 4.6 mph - N/A   Mostly Cloudy
2:00 AM 60.1 °F 55.9 °F 86% 29.82 in 10.0 mi North 4.6 mph - N/A   Mostly Cloudy
2:53 AM 60.1 °F 55.9 °F 86% 29.82 in 10.0 mi North 4.6 mph - N/A   Overcast
3:53 AM 57.9 °F 55.9 °F 93% 29.82 in 10.0 mi North 6.9 mph - N/A   Mostly Cloudy
4:53 AM 57.0 °F 54.0 °F 89% 29.83 in 8.0 mi NNW 5.8 mph - N/A   Clear
5:53 AM 55.9 °F 53.1 °F 90% 29.82 in 7.0 mi North 5.8 mph - N/A   Clear
6:53 AM 57.9 °F 54.0 °F 87% 29.83 in 10.0 mi North 9.2 mph - N/A   Clear
7:53 AM 63.0 °F 55.9 °F 78% 29.82 in 10.0 mi NNE 9.2 mph - N/A   Clear
8:53 AM 66.9 °F 57.0 °F 70% 29.83 in 10.0 mi NE 3.5 mph - N/A   Clear
9:53 AM 70.0 °F 57.9 °F 65% 29.83 in 10.0 mi NE 8.1 mph - N/A   Clear
10:53 AM 73.0 °F 59.0 °F 61% 29.82 in 10.0 mi NNE 8.1 mph - N/A   Clear
11:53 AM 73.9 °F 55.9 °F 53% 29.82 in 10.0 mi ENE 5.8 mph - N/A   Clear
12:53 PM 75.0 °F 57.0 °F 53% 29.81 in 10.0 mi Variable 5.8 mph - N/A   Clear
1:53 PM 75.0 °F 57.9 °F 55% 29.81 in 10.0 mi Variable 3.5 mph - N/A   Clear
2:53 PM 78.1 °F 57.9 °F 50% 29.80 in 10.0 mi Calm Calm - N/A   Clear
4:53 PM 78.1 °F 57.9 °F 50% 29.78 in 10.0 mi Variable 4.6 mph - N/A   Clear
5:53 PM 77.0 °F 60.1 °F 56% 29.77 in 10.0 mi SE 4.6 mph - N/A   Clear
6:53 PM 77.0 °F 60.1 °F 56% 29.77 in 10.0 mi South 4.6 mph - N/A   Clear
7:53 PM 75.0 °F 60.1 °F 60% 29.78 in 10.0 mi South 3.5 mph - N/A   Clear
8:53 PM 71.1 °F 61.0 °F 70% 29.79 in 10.0 mi SSW 3.5 mph - N/A   Clear
9:53 PM 71.1 °F 59.0 °F 66% 29.79 in 10.0 mi South 4.6 mph - N/A   Clear
10:53 PM 69.1 °F 60.1 °F 73% 29.80 in 10.0 mi South 5.8 mph - N/A   Clear
11:53 PM 64.9 °F 61.0 °F 87% 29.81 in 10.0 mi SSW 5.8 mph - N/A   Clear